When you browse on this site, cookies collect data to enhance your experience and personalize the content and advertising you see.
Visit our Privacy Policy to learn more. By continuing to use the site, you agree to this use of cookies and data.
  • In Lithuania
  • List of Countries
  • For 7 days
  • Water Temperature
  • Satellite Maps
  • Weather Map
  • Weather Widgets
  • user-avatar
    Login

    Hourly Weather Grabovcy

    Today, 23 April, Tuesday

    Time Temperature Precipitation Wind Pressure Humidity
    00:00 +8°C° 0 mm 3 mps 756 mmHg 57%
    01:00 +8°C° 0 mm 3 mps 756 mmHg 58%
    02:00 +7°C° 0 mm 3 mps 757 mmHg 60%
    03:00 +7°C° 0 mm 3 mps 757 mmHg 61%
    04:00 +7°C° 0 mm 3 mps 757 mmHg 62%
    05:00 +5°C° 0 mm 3 mps 757 mmHg 63%
    06:00 +7°C° 0 mm 4 mps 757 mmHg 60%
    07:00 +9°C° 0 mm 5 mps 757 mmHg 57%
    08:00 +10°C° 0 mm 5 mps 757 mmHg 54%
    09:00 +13°C° 0 mm 6 mps 757 mmHg 49%
    10:00 +14°C° 0 mm 7 mps 757 mmHg 43%
    11:00 +16°C° 0 mm 8 mps 757 mmHg 37%
    12:00 +16°C° 0 mm 8 mps 756 mmHg 36%
    13:00 +17°C° 0 mm 8 mps 756 mmHg 36%
    14:00 +17°C° 0 mm 8 mps 756 mmHg 35%
    15:00 +17°C° 0 mm 7 mps 755 mmHg 37%
    16:00 +17°C° 0 mm 7 mps 755 mmHg 38%
    17:00 +17°C° 0 mm 7 mps 755 mmHg 40%
    18:00 +15°C° 0 mm 6 mps 755 mmHg 44%
    19:00 +14°C° 0 mm 6 mps 755 mmHg 47%
    20:00 +13°C° 0 mm 5 mps 754 mmHg 51%
    21:00 +12°C° 0 mm 5 mps 755 mmHg 51%
    22:00 +11°C° 0 mm 6 mps 755 mmHg 51%
    23:00 +10°C° 0 mm 6 mps 755 mmHg 51%

    Tomorrow, 24 April, Wednesday

    Time Temperature Precipitation Wind Pressure Humidity
    00:00 +10°C° 0 mm 6 mps 755 mmHg 52%
    01:00 +9°C° 0 mm 6 mps 755 mmHg 54%
    02:00 +9°C° 0 mm 6 mps 755 mmHg 55%
    03:00 +9°C° 0 mm 6 mps 754 mmHg 56%
    04:00 +8°C° 0 mm 6 mps 754 mmHg 58%
    05:00 +8°C° 0 mm 6 mps 754 mmHg 59%
    06:00 +9°C° 0 mm 7 mps 754 mmHg 56%
    07:00 +10°C° 0 mm 8 mps 754 mmHg 54%
    08:00 +11°C° 0 mm 9 mps 754 mmHg 51%
    09:00 +12°C° 0 mm 9 mps 754 mmHg 49%
    10:00 +13°C° 0 mm 9 mps 754 mmHg 46%
    11:00 +15°C° 0 mm 9 mps 754 mmHg 43%
    12:00 +16°C° 0 mm 9 mps 754 mmHg 43%
    13:00 +16°C° 0 mm 9 mps 754 mmHg 43%
    14:00 +17°C° 0 mm 9 mps 753 mmHg 43%
    15:00 +17°C° 0 mm 8 mps 753 mmHg 45%
    16:00 +17°C° 0 mm 8 mps 753 mmHg 46%
    17:00 +17°C° 0 mm 7 mps 753 mmHg 47%
    18:00 +16°C° 0 mm 7 mps 753 mmHg 51%
    19:00 +14°C° 0 mm 6 mps 753 mmHg 55%
    20:00 +13°C° 0 mm 5 mps 753 mmHg 59%
    21:00 +13°C° 0 mm 5 mps 753 mmHg 60%
    22:00 +12°C° 0 mm 5 mps 753 mmHg 61%
    23:00 +12°C° 0 mm 5 mps 753 mmHg 62%

    Day after tomorrow, 25 April, Thursday

    Time Temperature Precipitation Wind Pressure Humidity
    00:00 +10°C° 0 mm 5 mps 753 mmHg 62%
    01:00 +10°C° 0 mm 5 mps 753 mmHg 63%
    02:00 +10°C° 0 mm 5 mps 753 mmHg 64%
    03:00 +9°C° 0 mm 5 mps 753 mmHg 66%
    04:00 +9°C° 0 mm 5 mps 753 mmHg 68%
    05:00 +8°C° 0 mm 5 mps 753 mmHg 70%
    06:00 +9°C° 0 mm 5 mps 753 mmHg 69%
    07:00 +10°C° 0 mm 5 mps 752 mmHg 68%
    08:00 +11°C° 0 mm 6 mps 752 mmHg 67%
    09:00 +14°C° 0 mm 6 mps 752 mmHg 64%
    10:00 +16°C° 0 mm 6 mps 752 mmHg 61%
    11:00 +19°C° 0 mm 6 mps 752 mmHg 57%
    12:00 +20°C° 0 mm 6 mps 752 mmHg 55%
    13:00 +21°C° 0 mm 6 mps 752 mmHg 53%
    14:00 +23°C° 0 mm 6 mps 752 mmHg 50%
    15:00 +22°C° 0.1 mm 6 mps 752 mmHg 52%
    16:00 +22°C° 0.1 mm 6 mps 751 mmHg 53%
    17:00 +22°C° 0.1 mm 6 mps 751 mmHg 54%
    18:00 +20°C° 0 mm 5 mps 751 mmHg 59%
    19:00 +19°C° 0 mm 5 mps 751 mmHg 63%
    20:00 +17°C° 0 mm 4 mps 751 mmHg 68%
    21:00 +17°C° 0 mm 4 mps 751 mmHg 69%
    22:00 +15°C° 0 mm 4 mps 751 mmHg 70%
    23:00 +14°C° 0 mm 4 mps 751 mmHg 71%

    26 April, Friday

    Time Temperature Precipitation Wind Pressure Humidity
    00:00 +14°C° 0.2 mm 4 mps 751 mmHg 76%
    01:00 +13°C° 0.2 mm 4 mps 750 mmHg 81%
    02:00 +12°C° 0.2 mm 4 mps 750 mmHg 86%
    03:00 +12°C° 0.1 mm 4 mps 750 mmHg 88%
    04:00 +11°C° 0.1 mm 4 mps 750 mmHg 90%
    05:00 +11°C° 0.1 mm 4 mps 750 mmHg 92%
    06:00 +12°C° 0 mm 4 mps 749 mmHg 89%
    07:00 +13°C° 0 mm 4 mps 749 mmHg 85%
    08:00 +14°C° 0 mm 4 mps 749 mmHg 82%
    09:00 +16°C° 0 mm 5 mps 749 mmHg 77%
    10:00 +19°C° 0 mm 5 mps 749 mmHg 72%
    11:00 +21°C° 0 mm 5 mps 748 mmHg 67%
    12:00 +22°C° 0 mm 5 mps 748 mmHg 62%
    13:00 +23°C° 0 mm 5 mps 748 mmHg 58%
    14:00 +26°C° 0 mm 5 mps 747 mmHg 53%
    15:00 +26°C° 0 mm 5 mps 747 mmHg 53%
    16:00 +26°C° 0 mm 5 mps 747 mmHg 52%
    17:00 +26°C° 0 mm 4 mps 746 mmHg 52%
    18:00 +23°C° 0.1 mm 4 mps 746 mmHg 58%
    19:00 +22°C° 0.1 mm 4 mps 746 mmHg 65%
    20:00 +20°C° 0.1 mm 4 mps 746 mmHg 71%
    21:00 +19°C° 1 mm 4 mps 746 mmHg 76%
    22:00 +17°C° 1 mm 5 mps 746 mmHg 80%
    23:00 +16°C° 1 mm 5 mps 746 mmHg 84%

    27 April, Saturday

    Time Temperature Precipitation Wind Pressure Humidity
    00:00 +16°C° 0.4 mm 5 mps 746 mmHg 86%
    01:00 +15°C° 0.4 mm 4 mps 746 mmHg 88%
    02:00 +16°C° 0.4 mm 3 mps 746 mmHg 91%
    03:00 +16°C° 0 mm 3 mps 745 mmHg 92%
    04:00 +14°C° 0 mm 3 mps 745 mmHg 93%
    05:00 +14°C° 0 mm 3 mps 745 mmHg 94%
    06:00 +16°C° 0 mm 3 mps 745 mmHg 91%
    07:00 +17°C° 0 mm 3 mps 745 mmHg 87%
    08:00 +18°C° 0 mm 3 mps 745 mmHg 84%
    09:00 +19°C° 0 mm 3 mps 745 mmHg 77%
    10:00 +21°C° 0 mm 3 mps 745 mmHg 71%
    11:00 +24°C° 0 mm 3 mps 745 mmHg 65%
    12:00 +24°C° 0.1 mm 3 mps 745 mmHg 61%
    13:00 +25°C° 0.1 mm 3 mps 745 mmHg 56%
    14:00 +26°C° 0.1 mm 3 mps 744 mmHg 52%
    15:00 +24°C° 2.8 mm 3 mps 744 mmHg 62%
    16:00 +23°C° 2.8 mm 2 mps 744 mmHg 72%
    17:00 +20°C° 2.8 mm 2 mps 744 mmHg 81%
    18:00 +19°C° 0.1 mm 2 mps 744 mmHg 84%
    19:00 +18°C° 0.1 mm 2 mps 744 mmHg 86%
    20:00 +17°C° 0.1 mm 2 mps 745 mmHg 89%
    21:00 +17°C° 0 mm 2 mps 745 mmHg 90%
    22:00 +18°C° 0 mm 1 mps 745 mmHg 91%
    23:00 +16°C° 0 mm 1 mps 745 mmHg 92%

    28 April, Sunday

    Time Temperature Precipitation Wind Pressure Humidity
    00:00 +16°C° 0.4 mm 2 mps 745 mmHg 93%
    01:00 +15°C° 0.4 mm 2 mps 745 mmHg 94%
    02:00 +14°C° 0.4 mm 3 mps 745 mmHg 95%
    03:00 +13°C° 0.1 mm 3 mps 745 mmHg 95%
    04:00 +13°C° 0.1 mm 3 mps 745 mmHg 94%
    05:00 +12°C° 0.1 mm 4 mps 746 mmHg 94%
    06:00 +12°C° 0.1 mm 4 mps 746 mmHg 93%
    07:00 +12°C° 0.1 mm 4 mps 746 mmHg 91%
    08:00 +12°C° 0.1 mm 5 mps 746 mmHg 90%
    09:00 +10°C° 0.1 mm 5 mps 747 mmHg 89%
    10:00 +10°C° 0.1 mm 6 mps 747 mmHg 88%
    11:00 +10°C° 0.1 mm 6 mps 747 mmHg 86%
    12:00 +10°C° 1.1 mm 6 mps 747 mmHg 87%
    13:00 +10°C° 1.1 mm 6 mps 748 mmHg 88%
    14:00 +9°C° 1.1 mm 6 mps 748 mmHg 89%
    15:00 +9°C° 1.4 mm 6 mps 748 mmHg 90%
    16:00 +9°C° 1.4 mm 6 mps 748 mmHg 90%
    17:00 +8°C° 1.4 mm 7 mps 748 mmHg 90%
    18:00 +8°C° 1.9 mm 6 mps 748 mmHg 90%
    19:00 +7°C° 1.9 mm 6 mps 749 mmHg 91%
    20:00 +7°C° 1.9 mm 6 mps 749 mmHg 91%
    21:00 +5°C° 2.6 mm 6 mps 749 mmHg 91%
    22:00 +5°C° 2.6 mm 6 mps 749 mmHg 92%
    23:00 +4°C° 2.6 mm 6 mps 749 mmHg 92%
    Show more